FW0983 Weather Reports


time (UTC)temp
F
wind
direction
speed
knots
gust
knots
rain 1hr
in
rain 24hr
in
rain mn
in
humidity
%
barometer
mb
20260906051536 80 0 0.0 0.0 0.00 0.00 0.00 65 1012.1
20260906050036 81 0 0.0 0.0 0.00 0.00 0.00 65 1012.1
20260906044535 81 0 0.0 0.0 0.00 0.00 0.00 64 1012.2
20260906043034 81 0 0.0 0.0 0.00 0.00 0.00 63 1011.8
20260906041535 82 0 0.0 0.0 0.00 0.00 0.00 62 1012.0
20260906040036 82 0 0.0 0.0 0.00 0.00 0.00 61 1012.0
20260906034551 83 0 0.0 0.0 0.00 0.00 0.00 60 1012.0
20260906033039 84 0 0.0 0.0 0.00 0.00 0.00 59 1012.1
20260906031537 85 0 0.0 0.0 0.00 0.00 0.00 58 1012.2
20260906030035 85 0 0.0 0.0 0.00 0.00 0.00 57 1012.2
20260906024536 85 0 0.0 0.0 0.00 0.00 0.00 56 1012.1
20260906023036 86 0 0.0 0.0 0.00 0.00 0.00 54 1011.9
20260906021542 87 0 0.0 0.0 0.00 0.00 0.00 53 1011.6
20260906020036 87 0 0.0 0.0 0.00 0.00 0.00 52 1011.4
20260906014536 89 0 0.0 0.0 0.00 0.00 0.00 51 1011.1
20260906013035 89 0 0.0 0.0 0.00 0.00 0.00 49 1011.1
20260906011533 91 0 0.0 0.0 0.00 0.00 0.00 48 1010.8
20260906010040 93 0 0.0 0.0 0.00 0.00 0.00 47 1010.6
20260906004541 94 0 0.0 0.0 0.00 0.00 0.00 45 1010.5
20260906003036 96 0 0.0 0.0 0.00 0.00 0.00 44 1010.5
20260906001551 98 0 0.0 0.0 0.00 0.00 0.00 43 1010.5
20260906000039 99 0 0.0 0.0 0.00 0.00 0.00 43 1010.5
20260905234538 100 0 0.0 0.9 0.00 0.00 0.00 42 1010.7
20260905233035 101 198 0.9 1.7 0.00 0.00 0.00 42 1010.6
20260905231536 101 0 0.0 1.7 0.00 0.00 0.00 41 1010.8
20260905230039 102 198 1.7 3.5 0.00 0.00 0.00 41 1010.8
20260905224536 102 111 0.9 3.5 0.00 0.00 0.00 40 1010.8
20260905223047 103 111 0.0 4.3 0.00 0.00 0.00 40 1010.6
20260905221537 103 150 0.0 4.3 0.00 0.00 0.00 40 1010.7
20260905220035 102 0 0.9 5.2 0.00 0.00 0.00 41 1010.8
20260905214544 102 193 0.9 6.1 0.00 0.00 0.00 41 1010.8
20260905213038 102 105 0.9 6.1 0.00 0.00 0.00 42 1010.7
20260905211535 102 0 1.7 6.1 0.00 0.00 0.00 43 1010.9
20260905210045 102 134 1.7 7.0 0.00 0.00 0.00 44 1011.1
20260905204534 102 205 1.7 4.3 0.00 0.00 0.00 45 1011.3
20260905203032 102 98 1.7 5.2 0.00 0.00 0.00 46 1011.8
20260905201534 101 58 0.9 7.0 0.00 0.00 0.00 46 1012.0
20260905200101 101 279 1.7 6.1 0.00 0.00 0.00 48 1012.2
20260905194534 101 155 2.6 7.8 0.00 0.00 0.00 50 1012.4
20260905193036 100 102 2.6 8.7 0.00 0.00 0.00 51 1012.5
20260905191534 100 68 1.7 6.1 0.00 0.00 0.00 53 1012.9
20260905190034 100 227 2.6 6.1 0.00 0.00 0.00 55 1013.0
20260905184545 100 313 0.9 5.2 0.00 0.00 0.00 56 1013.0
20260905183039 99 200 1.7 4.3 0.00 0.00 0.00 58 1013.3
20260905181545 99 265 1.7 7.0 0.00 0.00 0.00 55 1013.3
20260905180040 98 63 2.6 7.0 0.00 0.00 0.00 58 1013.6
20260905174535 98 142 1.7 5.2 0.00 0.00 0.00 60 1013.6
20260905173043 97 131 2.6 7.0 0.00 0.00 0.00 62 1013.7
20260905171538 97 273 0.9 7.0 0.00 0.00 0.00 65 1013.9
20260905170036 96 5 1.7 7.0 0.00 0.00 0.00 67 1014.1
20260905164537 95 93 2.6 6.1 0.00 0.00 0.00 69 1014.4
20260905163035 95 60 2.6 7.0 0.00 0.00 0.00 71 1014.6
20260905161537 94 13 3.5 7.8 0.00 0.00 0.00 73 1014.8
20260905160036 93 352 3.5 7.0 0.00 0.00 0.00 75 1014.6
20260905154536 92 360 3.5 7.8 0.00 0.00 0.00 77 1014.7
20260905153037 91 9 1.7 7.0 0.00 0.00 0.00 78 1014.6
20260905151541 90 360 1.7 4.3 0.00 0.00 0.00 80 1014.7
20260905150039 89 5 0.9 4.3 0.00 0.00 0.00 81 1014.7
20260905144543 88 337 1.7 4.3 0.00 0.00 0.00 82 1014.8
20260905143037 87 145 0.0 2.6 0.00 0.00 0.00 82 1014.9
20260905141536 86 0 0.9 2.6 0.00 0.00 0.00 83 1014.7
20260905140039 84 145 0.0 3.5 0.00 0.00 0.00 83 1014.8
20260905134539 82 331 0.9 3.5 0.00 0.00 0.00 83 1014.6
20260905133035 80 331 2.6 3.5 0.00 0.00 0.00 83 1014.6
20260905131550 78 0 0.0 0.0 0.00 0.00 0.00 83 1014.5
20260905130034 77 0 0.0 0.0 0.00 0.00 0.00 83 1014.2
20260905124535 76 0 0.0 0.0 0.00 0.00 0.00 82 1014.1
20260905123057 75 0 0.0 0.0 0.00 0.00 0.00 82 1014.2
20260905121535 74 0 0.0 0.9 0.00 0.00 0.00 81 1014.3
20260905120036 74 0 0.0 0.0 0.00 0.00 0.00 81 1013.9
20260905114537 74 0 0.0 1.7 0.00 0.00 0.00 80 1013.8
20260905113035 75 0 0.9 1.7 0.00 0.00 0.00 80 1013.8
20260905111536 75 0 0.0 0.0 0.00 0.00 0.00 80 1013.9
20260905110035 75 113 0.0 0.9 0.00 0.00 0.00 80 1013.8
20260905104535 75 113 0.9 2.6 0.00 0.00 0.00 80 1013.6
20260905103042 75 0 0.0 0.9 0.00 0.00 0.00 79 1013.6
20260905101533 75 0 0.0 0.0 0.00 0.00 0.00 79 1013.7
20260905100049 75 0 0.0 0.0 0.00 0.00 0.00 78 1013.8
20260905094536 76 0 0.0 0.0 0.00 0.00 0.00 78 1013.6
20260905093034 76 0 0.0 0.0 0.00 0.00 0.00 78 1013.6
20260905091542 76 113 0.9 2.6 0.00 0.00 0.00 78 1013.5
20260905090035 76 113 0.9 1.7 0.00 0.00 0.00 77 1013.5
20260905084534 76 113 0.0 1.7 0.00 0.00 0.00 77 1013.4
20260905083416 77 0 0.0 0.0 0.00 0.00 0.00 76 1013.2
20260905081534 76 0 0.0 0.0 0.00 0.00 0.00 76 1013.5
20260905074536 77 0 0.0 0.0 0.00 0.00 0.00 75 1013.4
20260905073036 77 0 0.0 0.0 0.00 0.00 0.00 75 1013.4
20260905071537 76 0 0.0 0.0 0.00 0.00 0.00 74 1013.5
20260905070048 77 0 0.0 0.0 0.00 0.00 0.00 74 1013.5
20260905064541 77 0 0.0 0.0 0.00 0.00 0.00 74 1013.3
20260905063048 77 0 0.0 0.0 0.00 0.00 0.00 73 1013.3
20260905061540 78 0 0.0 0.0 0.00 0.00 0.00 73 1013.4
20260905060047 78 0 0.0 0.0 0.00 0.00 0.00 73 1013.5
20260905054538 78 0 0.0 0.0 0.00 0.00 0.00 72 1013.4
20260905053033 78 0 0.0 0.0 0.00 0.00 0.00 72 1013.3